Jackson, MI

11:17 PM EDT on October 20, 2019 (GMT -0400)
Jackson County-Reynolds

Weather History for KJXN - July, 2019

Change the Weather History Date:

Friday, July 12, 2019

  Actual Average Record
Temperature  
Mean Temperature 66 °F 71 °F  
Max Temperature 78 °F 83 °F 97 °F (1966)
Min Temperature 54 °F 60 °F 46 °F (2002)
Degree Days  
Heating Degree Days 0 0  
Month to date heating degree days 0 1  
Since 1 June heating degree days 58 56  
Since 1 July heating degree days 0 1  
Cooling Degree Days 1 7  
Month to date cooling degree days 119 82  
Year to date cooling degree days 222 245  
Since 1 June cooling degree days 212 208  
Growing Degree Days 16 (Base 50)    
Moisture  
Dew Point 58 °F    
Average Humidity 77    
Maximum Humidity 100    
Minimum Humidity 54    
Precipitation  
Precipitation 0.00 in 0.11 in 0.99 in (2016)
Month to date precipitation 1.36 1.30  
Year to date precipitation 18.08 15.17  
Sea Level Pressure  
Sea Level Pressure 29.96 in    
Wind  
Wind Speed 3 mph (WNW)    
Max Wind Speed 9 mph    
Max Gust Speed 14 mph    
Visibility 10 miles    
Events      
T = Trace of Precipitation, MM = Missing Value Source: NWS Daily Summary

Daily Weather History Graph

Daily Weather History Graph

Search for Another Location

Airport or City:

Astronomy

Jul. 12, 2019 Rise Set
Actual Time 6:12 AM EDT 9:14 PM EDT
Civil Twilight 5:38 AM EDT 9:48 PM EDT
Nautical Twilight 4:55 AM EDT 10:31 PM EDT
Astronomical Twilight 4:04 AM EDT 11:21 PM EDT
Moon 5:30 PM EDT (7/12) 2:57 AM EDT (7/12)
Length of Visible Light 16h 09m
Length of Day
15h 02m
Waxing Gibbous, 82% of the Moon is Illuminated
Jul 12
Waxing Gibbous
Jul 16
Full
Jul 24
Last Quarter
Jul 31
New
Aug 7
First Quarter

Hourly Weather History & Observations

Time (EDT) Temp. Dew Point Humidity Pressure Visibility Wind Dir Wind Speed Gust Speed Precip Events Conditions
12:56 AM 64.0 °F 57.9 °F 80% 29.91 in 10.0 mi WNW 3.5 mph - N/A   Clear
1:56 AM 63.0 °F 57.9 °F 84% 29.91 in 10.0 mi Calm Calm - N/A   Clear
2:56 AM 61.0 °F 57.0 °F 87% 29.91 in 10.0 mi NW 5.8 mph - N/A   Clear
3:56 AM 60.1 °F 57.0 °F 90% 29.91 in 10.0 mi NNW 3.5 mph - N/A   Clear
4:56 AM 59.0 °F 55.9 °F 90% 29.91 in 10.0 mi Calm Calm - N/A   Clear
5:56 AM 54.0 °F 54.0 °F 100% 29.95 in 8.0 mi WNW 3.5 mph - N/A   Clear
6:56 AM 55.9 °F 55.0 °F 97% 29.95 in 10.0 mi Calm Calm - N/A   Clear
7:49 AM 61.0 °F 55.9 °F 83% 29.97 in 10.0 mi North 3.5 mph - N/A   Mostly Cloudy
7:56 AM 61.0 °F 55.9 °F 83% 29.96 in 10.0 mi Variable 3.5 mph - N/A   Mostly Cloudy
8:56 AM 61.0 °F 55.0 °F 81% 29.98 in 10.0 mi North 3.5 mph - N/A   Overcast
9:56 AM 60.1 °F 55.9 °F 86% 29.99 in 10.0 mi West 5.8 mph - N/A   Overcast
10:56 AM 61.0 °F 55.9 °F 83% 29.99 in 10.0 mi North 3.5 mph - N/A   Overcast
11:56 AM 63.0 °F 57.0 °F 81% 30.00 in 10.0 mi NW 5.8 mph - N/A   Overcast
12:56 PM 64.0 °F 57.0 °F 78% 30.01 in 10.0 mi Calm Calm - N/A   Overcast
1:11 PM 66.0 °F 57.9 °F 75% 30.01 in 10.0 mi Calm Calm - N/A   Overcast
1:56 PM 70.0 °F 59.0 °F 68% 29.99 in 10.0 mi Variable 4.6 mph - N/A   Scattered Clouds
2:56 PM 73.0 °F 60.1 °F 64% 29.97 in 10.0 mi Variable 3.5 mph - N/A   Clear
3:56 PM 75.9 °F 61.0 °F 60% 29.96 in 10.0 mi Variable 5.8 mph - N/A   Clear
4:56 PM 77.0 °F 61.0 °F 58% 29.96 in 10.0 mi Variable 5.8 mph - N/A   Clear
5:56 PM 78.1 °F 61.0 °F 56% 29.95 in 10.0 mi WSW 5.8 mph - N/A   Clear
6:56 PM 77.0 °F 62.1 °F 60% 29.95 in 10.0 mi SW 5.8 mph - N/A   Clear
7:56 PM 77.0 °F 62.1 °F 60% 29.94 in 10.0 mi WSW 3.5 mph - N/A   Clear
8:56 PM 72.0 °F 62.1 °F 71% 29.94 in 10.0 mi SW 3.5 mph - N/A   Clear
9:56 PM 66.0 °F 62.1 °F 87% 29.94 in 10.0 mi WSW 3.5 mph - N/A   Clear
10:56 PM 64.0 °F 61.0 °F 90% 29.95 in 10.0 mi Calm Calm - N/A   Clear
11:56 PM 64.0 °F 60.1 °F 87% 29.96 in 10.0 mi Calm Calm - N/A   Clear